Location: Newark
(54.6833°N, 25.2833°E)
Time: 18:55:27
(UTC+00:00)

A-11 Canister half - Pass Details

Date: 21 January 2021
Orbit: 1525 x 1684 km, 47.3° (Epoch: 05 March)

Event Time Altitude Azimuth Distance (km) Brightness Sun altitude
Rises 19:43:35 0° 283° (WNW) 4,776 12.3 -43.0°
Reaches altitude 10° 19:47:05 10° 273° (W) 3,813 11.6 -43.4°
Enters shadow 19:53:36 29° 232° (SW) 2,636 10.2 -44.2°
